Hurghada, Egypt

8:07 PM EET on April 23, 2017 (GMT +0200)
Hurghada International

Weather History for HEGN - October, 2013

Change the Weather History Date:

Thursday, October 24, 2013

  Actual Average Record
Temperature  
Mean Temperature 78 °F -  
Max Temperature 88 °F 79 °F 100 °F (2003)
Min Temperature 67 °F 64 °F 66 °F (2005)
Cooling Degree Days 12    
Growing Degree Days 28 (Base 50)    
Moisture  
Dew Point 59 °F    
Average Humidity 53    
Maximum Humidity 68    
Minimum Humidity 38    
Precipitation  
Precipitation 0.00 in - - ()
Sea Level Pressure  
Sea Level Pressure 29.90 in    
Wind  
Wind Speed 13 mph ()    
Max Wind Speed 23 mph    
Max Gust Speed -    
Visibility 6.0 miles    
Events      
Averages and records for this station are not official NWS values.
T = Trace of Precipitation, MM = Missing Value Source: Averaged Metar Reports

Daily Weather History Graph

Daily Weather History Graph

Search for Another Location

Airport or City:

Trip Planner

Search our weather history database for the weather conditions in past years. The results will help you decide how hot, cold, wet, or windy it might be!

Date:

Astronomy

Oct. 24, 2013 Rise Set
Actual Time 5:50 AM EET 5:08 PM EET
Civil Twilight 5:26 AM EET 5:31 PM EET
Nautical Twilight 4:59 AM EET 5:59 PM EET
Astronomical Twilight 4:31 AM EET 6:26 PM EET
Moon 9:25 PM EET (10/24) 10:24 AM EET (10/24)
Length of Visible Light 12h 05m
Length of Day
11h 18m
Waning Gibbous, 73% of the Moon is Illuminated
Oct 24
Waning Gibbous
Oct 27
Last Quarter
Nov 3
New
Nov 10
First Quarter
Nov 17
Full

Hourly Weather History & Observations

Time (EET) Temp. Heat Index Dew Point Humidity Pressure Visibility Wind Dir Wind Speed Gust Speed Precip Events Conditions
12:00 AM 75.2 °F - 53.6 °F 47% 29.89 in - WNW 12.7 mph - N/A   Clear
1:00 AM 73.4 °F - 55.4 °F 53% 29.92 in - NW 11.5 mph - N/A   Clear
2:00 AM 71 °F - 56 °F 49% 29.90 in 6 mi NW 11.5 mph - -  
2:00 AM 71.6 °F - 55.4 °F 57% 29.89 in - NW 11.5 mph - N/A   Clear
3:00 AM 69.8 °F - 57.2 °F 64% 29.89 in - WNW 11.5 mph - N/A   Clear
4:00 AM 69.8 °F - 57.2 °F 64% 29.89 in - WNW 11.5 mph - N/A   Clear
5:00 AM 68.0 °F - 57.2 °F 68% 29.89 in - NW 12.7 mph - N/A   Clear
6:00 AM 68.0 °F - 55.4 °F 64% 29.92 in - NW 11.5 mph - N/A   Clear
7:00 AM 69.8 °F - 55.4 °F 60% 29.92 in - WNW 16.1 mph - N/A   Clear
8:00 AM 76 °F - 55 °F 38% 29.94 in 6 mi NNW 13.8 mph - -  
8:00 AM 75.2 °F - 55.4 °F 50% 29.92 in - NW 13.8 mph - N/A   Clear
9:00 AM 78.8 °F - 60.8 °F 54% 29.92 in - North 17.3 mph - N/A   Clear
10:00 AM 82.4 °F 83.4 °F 62.6 °F 51% 29.92 in - North 20.7 mph - N/A   Clear
11:00 AM 84.2 °F 85.6 °F 64.4 °F 51% 29.92 in - North 18.4 mph - N/A   Clear
12:00 PM 86.0 °F 87.3 °F 64.4 °F 48% 29.89 in - North 17.3 mph - N/A   Clear
1:00 PM 87.8 °F 90.4 °F 66.2 °F 49% 29.86 in - North 20.7 mph - N/A   Clear
2:00 PM 86 °F - 65 °F 40% 29.86 in 6 mi North 21.9 mph - -   Clear
2:00 PM 86.0 °F 88.2 °F 66.2 °F 51% 29.86 in - North 21.9 mph - N/A   Clear
3:00 PM 86.0 °F 87.3 °F 64.4 °F 48% 29.86 in - North 23.0 mph - N/A   Clear
4:00 PM 80.6 °F 82.3 °F 64.4 °F 58% 29.86 in - North 17.3 mph - N/A   Clear
5:00 PM 80.6 °F 81.8 °F 62.6 °F 54% 29.86 in - North 13.8 mph - N/A   Clear
6:00 PM 78.8 °F - 59.0 °F 51% 29.89 in - North 9.2 mph - N/A   Clear
7:00 PM 77.0 °F - 57.2 °F 50% 29.89 in - North 13.8 mph - N/A   Clear
8:00 PM 76 °F - 56 °F 39% 29.92 in 6 mi NNW 11.5 mph - -   Clear
8:00 PM 77.0 °F - 55.4 °F 47% 29.92 in - NNW 11.5 mph - N/A   Clear
9:00 PM 71.6 °F - 55.4 °F 57% 29.92 in - NW 11.5 mph - N/A   Clear
10:00 PM 71.6 °F - 55.4 °F 57% 29.92 in - NW 9.2 mph - N/A   Clear
11:00 PM 71.6 °F - 53.6 °F 53% 29.92 in - WNW 13.8 mph - N/A   Clear